Theta_e
322 321 320 319 319 319 318 318 318 318 318 319 321 321 321 322 323 321 315 321 323 326 324 319 316 316 318 315 315 315 303 300 302 302 305 307 305 308 307 306 305 306 306 305 306
321 321 320 319 319 319 318 318 317 317 317 318 319 320 320 322 321 314 323 324 324 323 318 314 311 314 312 312 311 308 302 303 306 307 304 305 306 306 304 304 302 302 304 304 307
320 321 320 319 318 319 318 318 318 317 319 318 320 320 320 322 313 312 322 321 321 322 316 315 313 312 309 311 309 308 303 305 303 305 305 304 303 304 302 301 304 302 302 303 305
321 320 319 319 318 318 318 318 318 318 318 319 320 320 321 318 301 314 317 317 319 317 315 312 310 307 306 304 309 301 305 304 304 304 302 301 303 300 302 303 305 304 303 301 303
320 320 319 319 318 317 318 318 318 318 319 320 319 320 318 310 310 315 314 313 314 311 310 309 307 307 302 305 304 302 302 302 303 302 302 301 299 300 299 304 302 302 300 300 302
320 320 320 319 318 317 317 317 317 318 319 320 321 319 315 303 314 312 309 310 310 309 307 309 307 308 304 302 301 302 302 301 301 301 299 296 297 297 299 303 301 300 298 300 302
319 320 319 318 318 316 316 316 316 318 318 319 320 318 309 307 313 312 308 307 309 308 303 307 307 305 303 299 301 299 295 297 298 298 295 296 293 293 299 300 300 299 298 300 302
319 319 318 318 317 316 315 315 316 317 318 319 318 314 304 312 314 309 309 306 308 308 306 307 307 302 301 301 297 294 294 291 296 296 294 293 291 296 299 298 298 298 297 298 300
320 319 318 317 317 315 315 314 316 317 318 318 313 309 303 311 306 308 308 303 305 306 306 306 304 300 298 294 292 293 291 291 291 296 294 292 291 294 297 297 296 297 297 298 298
319 319 318 316 316 314 314 312 314 312 312 313 311 303 304 301 305 306 308 305 302 302 301 300 300 296 296 293 290 291 289 289 290 291 291 290 290 294 295 295 295 297 298 297 296
318 318 317 316 314 312 310 310 305 303 306 303 303 302 301 304 305 302 306 302 302 299 294 297 293 291 295 295 293 290 289 289 291 291 288 289 290 293 296 295 295 295 296 296 295
319 317 316 315 312 310 307 303 304 303 296 304 303 301 303 303 296 299 304 298 296 293 295 292 289 294 294 293 290 289 288 289 291 289 288 290 290 294 295 293 294 294 295 295 296
319 316 316 312 310 308 304 303 307 306 297 298 301 300 299 300 296 297 300 298 294 292 292 290 292 293 291 290 288 289 287 288 286 289 291 288 288 289 290 291 293 294 296 297 296
319 316 315 311 305 307 302 306 307 307 293 294 294 297 298 299 294 301 301 297 293 291 291 291 292 290 289 288 289 287 288 287 286 286 286 288 285 288 288 290 291 293 295 296 296
318 316 314 311 308 304 303 306 307 305 282 294 293 301 299 295 295 295 299 296 292 291 290 288 288 288 288 288 290 286 288 286 286 285 285 285 283 287 289 287 289 293 294 295 295
317 316 311 305 307 307 306 306 305 291 280 288 293 291 291 294 294 294 295 297 295 291 291 290 291 290 290 289 289 289 286 286 285 285 281 285 282 285 285 288 290 292 293 294 293
316 315 310 309 303 306 306 302 288 283 291 287 288 291 291 290 292 292 291 290 289 285 286 288 288 290 290 287 288 287 285 285 283 282 284 282 281 287 289 289 292 292 293 293 293
314 314 311 307 305 305 302 294 281 289 289 292 291 291 288 292 291 291 291 289 293 291 290 286 283 287 290 288 287 286 286 285 279 282 283 281 280 287 290 290 292 294 294 293 292
313 309 303 303 304 305 295 285 286 289 293 290 290 287 287 291 291 291 290 291 294 292 288 287 283 287 287 288 288 285 283 285 282 281 280 286 287 288 287 288 289 291 291 291 292
307 301 300 303 304 300 290 286 289 293 293 292 287 291 287 288 288 289 290 293 290 293 293 290 282 286 285 288 287 286 287 281 283 277 278 284 283 286 285 286 287 288 289 291 292
303 296 302 302 302 292 284 288 291 295 294 291 290 290 292 289 290 288 290 290 292 290 291 290 288 282 285 283 285 282 283 283 284 282 280 280 284 289 289 289 288 289 291 291 292
300 289 298 301 286 286 287 292 295 292 294 293 293 294 292 292 289 289 289 291 293 291 286 290 289 283 283 285 286 286 288 286 282 279 280 279 281 289 289 289 290 291 291 292 292
295 290 298 295 284 285 291 292 292 290 291 291 291 294 293 291 286 291 291 292 292 290 288 288 287 281 280 283 284 282 284 284 282 283 280 279 284 289 288 288 289 289 291 291 292
291 285 286 286 287 291 289 288 288 293 291 293 292 292 290 289 290 289 289 289 291 291 290 292 287 286 284 283 285 279 282 283 282 280 282 282 285 287 287 288 289 290 292 292 293
293 287 291 283 284 287 290 289 288 286 290 292 289 290 289 287 287 287 289 286 289 290 290 288 283 285 285 284 283 283 280 281 279 282 282 285 286 289 291 291 292 292 292 290 290
289 291 290 289 290 285 288 286 288 290 288 287 288 291 292 287 289 287 288 287 285 289 287 286 284 284 283 285 284 281 284 282 281 282 283 284 283 290 291 291 289 289 289 289 289
300 300 294 289 289 285 286 290 289 292 291 292 291 291 289 291 294 295 295 293 291 286 284 284 284 282 281 281 280 279 283 284 285 285 283 280 286 290 290 288 288 289 289 288 289
Wind_Speed
13 14 14 13 12 12 11 11 11 10 10 9 10 9 8 6 7 8 4 8 8 9 8 6 5 5 6 5 5 5 8 9 13 8 6 8 9 5 3 3 3 2 7 11 8
12 14 15 14 13 11 11 10 10 9 8 8 9 10 7 9 13 4 5 7 8 8 10 8 6 8 8 6 5 9 9 7 9 6 2 6 9 8 6 7 7 8 9 8 9
14 13 14 14 15 13 11 10 10 9 9 6 7 7 7 11 10 4 7 8 8 10 3 4 3 8 8 5 7 8 10 5 3 2 1 5 6 3 8 9 8 11 11 9 8
15 16 15 14 15 14 13 11 9 8 7 7 6 5 7 10 2 6 6 7 8 9 5 5 7 9 8 9 5 8 4 4 3 3 3 5 2 6 10 2 1 4 9 9 8
11 16 17 15 14 15 14 12 9 6 4 5 2 3 8 9 1 4 5 3 6 4 6 7 9 9 8 7 5 11 3 3 2 4 4 3 8 10 8 7 5 7 6 7 7
10 9 13 16 15 15 14 13 9 5 4 5 4 5 10 10 3 2 3 2 4 4 3 6 5 2 4 4 9 3 3 6 5 7 5 7 9 3 9 10 11 9 8 8 7
8 7 8 14 16 15 15 14 9 6 5 5 5 8 9 3 1 1 1 2 2 3 2 0 1 7 3 4 1 3 7 7 9 7 4 4 12 13 8 8 15 11 9 7 6
8 6 6 9 14 16 15 14 9 6 6 6 5 9 7 4 0 4 3 4 2 2 3 2 3 2 4 4 6 6 7 9 10 8 5 5 6 8 10 10 14 14 12 11 10
8 6 6 8 11 15 16 15 9 6 7 7 8 9 5 7 7 4 3 2 4 4 3 4 3 1 5 9 6 8 6 10 7 9 4 11 7 9 8 11 13 14 13 8 9
5 8 4 6 11 13 15 12 3 6 8 6 6 5 6 5 7 4 4 4 2 4 5 6 6 7 8 8 3 4 8 5 6 9 10 10 14 6 11 12 11 13 15 10 8
7 6 3 6 9 11 10 5 6 7 11 8 1 2 5 7 6 7 7 6 5 6 9 7 8 9 12 7 5 3 3 5 3 6 6 15 16 14 12 19 15 15 14 9 7
9 4 3 4 7 9 5 6 6 6 9 17 9 5 3 10 6 9 7 8 8 10 5 6 11 6 1 4 4 4 5 7 1 2 5 10 16 13 11 9 9 13 13 9 11
12 7 8 1 6 6 6 5 3 4 8 8 12 13 8 10 8 13 11 5 8 9 10 11 8 5 5 6 6 6 6 4 5 5 14 11 12 7 6 6 5 5 9 12 12
13 9 8 6 3 2 5 4 2 2 6 9 9 8 9 8 7 6 8 4 5 7 4 6 9 6 5 7 5 7 3 1 4 7 4 1 4 10 12 10 9 10 11 12 11
13 10 11 9 2 4 4 1 3 3 6 12 9 5 13 11 12 8 4 5 7 6 5 6 7 7 8 1 3 6 1 3 5 9 9 8 6 8 10 12 12 13 13 12 10
15 12 13 2 4 2 4 2 4 3 10 8 7 11 13 11 7 7 6 3 3 4 4 3 1 3 2 3 0 6 4 4 4 5 4 1 4 9 9 14 15 13 13 12 9
17 15 12 3 4 9 7 4 4 7 3 8 8 11 16 11 11 10 12 11 8 6 9 6 9 4 5 5 3 5 5 2 3 3 2 3 5 7 8 3 13 15 14 12 9
15 18 11 7 8 11 6 5 10 9 16 5 7 12 12 12 10 12 9 11 14 8 3 8 7 11 8 5 3 8 3 4 5 2 3 4 7 3 5 6 4 11 12 12 8
12 6 5 6 10 8 8 9 9 12 8 12 12 12 12 13 3 11 13 9 8 17 9 5 6 6 0 2 4 6 5 3 5 2 4 5 4 10 7 8 9 10 12 12 10
3 5 5 12 9 4 8 18 14 4 4 14 13 14 16 16 13 12 13 4 8 11 2 5 5 5 5 3 1 5 4 3 2 3 5 5 5 2 10 11 11 12 13 12 11
4 4 4 16 4 5 9 12 18 7 7 9 11 11 10 11 14 10 4 3 9 10 6 4 2 7 5 10 9 5 5 1 2 3 4 5 1 5 5 7 11 12 12 11 11
4 6 6 12 5 4 10 13 11 6 10 6 5 9 12 13 12 12 12 2 12 14 9 6 2 4 3 4 3 5 3 7 4 6 1 4 8 3 2 1 3 7 9 9 9
6 3 3 2 7 9 12 13 10 7 8 7 6 7 2 8 4 10 9 4 11 14 11 9 5 4 4 2 3 6 10 4 2 1 9 4 2 4 5 3 2 6 7 8 12
3 6 3 2 3 16 16 12 12 11 4 6 2 4 6 6 2 9 10 5 9 9 3 10 4 4 3 3 4 6 8 15 10 6 7 13 14 8 7 7 7 10 12 13 12
5 2 4 7 12 7 13 12 16 8 8 11 7 12 8 5 8 7 10 8 7 7 7 5 4 3 6 3 4 5 7 14 18 18 10 10 13 13 10 15 15 13 10 9 11
3 3 4 1 10 14 8 12 19 19 10 9 12 17 14 7 9 12 11 9 7 12 6 2 3 3 4 4 8 13 15 18 19 20 22 22 27 19 14 5 5 7 7 10 11
4 5 3 7 8 8 9 17 18 14 12 14 16 9 14 13 1 4 13 9 11 12 7 8 7 5 2 2 4 12 21 23 17 14 18 17 17 14 14 8 8 9 9 11 12
Wind_Direction
350 349 349 349 350 350 347 344 341 338 330 329 331 332 335 312 278 220 57 343 329 329 293 262 232 195 207 194 250 263 249 248 236 246 210 140 204 181 50 178 197 87 61 85 121
354 350 349 347 346 346 346 344 340 336 324 319 317 319 333 313 249 146 32 341 331 321 241 224 201 188 198 210 205 226 237 280 20 31 264 174 229 173 214 193 184 157 116 127 150
349 353 349 349 344 341 342 342 339 330 316 315 313 311 313 300 259 99 23 347 333 297 278 256 258 209 220 234 201 207 254 51 73 68 343 179 225 210 234 209 211 190 155 153 149
342 345 348 351 344 339 337 341 337 330 329 322 295 289 302 283 302 73 360 330 307 294 240 205 211 201 217 211 192 248 264 274 117 139 204 209 298 238 236 280 174 160 136 160 169
336 339 341 345 343 339 332 336 332 333 321 337 333 302 278 236 151 71 319 288 263 284 241 217 214 215 223 227 217 236 214 224 186 195 247 277 246 253 243 209 143 131 163 175 167
329 336 340 338 338 336 329 326 322 316 308 320 310 297 257 265 86 39 358 276 345 257 205 218 248 221 257 223 233 15 225 220 206 223 234 247 244 219 224 205 184 178 178 177 169
316 322 341 334 332 331 326 321 308 281 275 284 289 244 271 313 76 40 48 40 317 300 169 79 211 212 177 181 175 193 230 215 220 212 227 248 252 223 239 209 190 195 178 173 183
303 316 326 334 329 329 325 319 303 266 258 273 276 246 276 120 243 198 185 116 100 78 89 143 210 124 256 92 186 217 236 217 145 179 153 212 277 199 192 198 197 195 187 187 210
296 303 303 326 328 329 322 316 286 246 248 268 241 230 254 123 204 154 224 158 125 120 110 140 225 220 177 206 196 203 262 213 152 201 178 214 293 140 187 203 208 201 211 212 212
279 296 285 319 325 330 320 297 277 248 225 234 255 236 163 210 141 183 148 190 199 170 171 208 220 219 224 210 254 208 226 229 226 172 215 226 243 233 198 204 217 229 228 248 223
248 286 268 312 329 327 324 224 210 201 216 227 229 245 143 119 165 201 176 183 193 225 225 200 240 213 204 228 307 286 257 255 163 113 266 245 254 249 226 224 239 241 246 241 213
246 224 199 301 327 311 278 251 10 349 281 222 232 253 227 182 171 181 182 208 199 227 179 198 239 64 110 169 211 221 248 251 248 187 247 273 262 249 247 254 262 240 222 180 163
245 223 167 225 314 272 262 276 338 298 260 188 211 218 186 197 212 176 194 200 225 225 216 261 50 134 185 188 223 229 263 291 300 308 247 285 252 185 176 181 184 223 163 155 161
225 223 180 136 286 348 253 131 194 314 270 172 195 200 175 200 208 134 207 245 211 240 209 258 118 191 210 243 251 271 57 294 291 302 302 336 305 185 162 167 169 165 162 161 156
218 210 185 176 1 254 45 188 149 224 272 128 139 79 156 191 124 178 141 177 234 176 210 78 171 198 223 360 221 57 34 311 299 280 308 159 249 110 166 180 171 168 162 164 166
223 196 157 152 160 258 142 179 212 192 245 166 142 175 171 198 177 128 175 204 5 190 222 79 49 229 3 104 307 120 232 241 268 272 239 100 263 167 179 203 173 171 171 164 174
221 183 178 188 171 143 154 187 193 209 98 171 187 176 195 176 176 186 182 185 183 179 198 174 193 133 184 176 174 224 254 261 226 212 298 144 240 295 131 198 175 176 178 173 172
236 189 191 181 142 144 171 195 233 213 207 113 163 170 187 170 211 195 191 218 218 231 226 194 191 185 164 249 300 195 298 275 274 291 29 162 233 104 124 150 184 177 176 179 189
216 187 163 172 152 161 186 210 220 232 129 158 149 178 192 183 227 195 218 220 211 201 202 209 137 110 105 157 300 142 210 18 300 185 264 234 221 151 148 178 185 184 183 197 213
177 193 174 152 142 181 197 222 225 292 144 166 199 197 188 180 183 196 194 230 181 205 100 173 121 191 129 175 122 299 118 172 135 259 262 208 267 236 188 194 192 198 205 213 225
202 202 140 139 128 160 207 224 226 212 217 195 226 196 202 172 197 184 217 134 166 172 163 163 242 135 163 205 188 170 200 187 17 282 278 296 135 33 71 179 198 211 214 223 237
219 211 149 156 152 172 218 221 214 231 207 244 290 231 206 171 183 200 203 210 161 162 176 155 127 164 125 81 346 309 214 185 221 176 209 331 278 81 87 85 278 224 228 239 253
220 81 161 356 198 194 210 219 232 208 197 189 231 226 187 176 161 187 182 88 163 180 155 178 176 141 167 169 187 226 189 173 87 341 214 238 233 134 124 146 211 267 283 271 274
192 155 234 110 313 221 196 205 203 215 228 191 198 146 163 206 142 170 156 155 171 185 21 150 194 267 336 73 119 193 213 198 197 210 210 226 273 195 199 212 243 255 255 265 288
198 184 169 183 221 255 195 173 199 198 227 191 191 214 173 160 176 188 147 134 168 162 178 145 202 186 268 183 203 201 187 201 213 222 222 263 264 270 307 311 304 299 302 295 291
207 163 150 240 220 198 228 185 204 207 169 204 233 198 199 168 187 187 158 171 176 176 163 159 154 179 258 222 238 258 243 210 224 236 248 265 272 282 302 342 300 298 297 296 299
211 183 181 178 191 185 209 214 216 206 206 245 212 203 209 206 93 287 174 165 155 151 153 157 154 171 233 135 285 266 246 228 218 216 227 241 251 272 257 264 280 289 294 303 307